DECAYED
Showing default

E-STAR-2, 41459 (Decayed)

Orbit data source: Space-Track

E-STAR-2, 41459 was a payload satellite owned by PolyTorino (IT) in LEO that was launched on Mon, 25 Apr 2016 UTC via a SOYUZ-ST-A launch vehicle from the French Guiana (FRGUI). Payload-class satellites include a variety of spacecraft equipped with specific instruments for various scientific and technological missions. These include communications satellites like Starlink; space stations such as the ISS; scientific satellites like the Hubble; Earth observation satellites from companies like Planet Labs, Umbra, and HawkEye 360; GPS; miniature CubeSats for education and research; and military/defense satellites.

Not visible in the next 10 days
Identifier
41459, 2016-025D
Orbit
Decayed
Country
Flag of ITIT
Related business
Manufacturer
PolyTorino
Mission
Decayed Amateur Technology
Bus & Motor
CUBESAT 1U, Unknown motor
Mass
1 kg wet, 1 kg dry
Launch date (UTC)
2016-04-25 (9 years ago)
Launch vehicle
SOYUZ-ST-A
Launch site
French Guiana (FRGUI)
Object type
Payload
Rocket body
Debris
Shape & HBR
Box, 0.1 m
Radar Cross Section
0.015 m², Small (<0.1 m²)

Expand to show TLE details & history
Last TLE update: 1 year ago

TLE from 1 year ago
0 E-STAR-2
1 41459U 16025D   24126.07714411  .16156611  31653-5  27264-3 0  9991
2 41459  98.0991  14.5477 0007120 232.8921 127.1731 16.47786158442898
Epoch: 2024-05-05T01:51Z
TLE epoch observation values (Epoch: 2024-05-05T01:51:05.251Z)
Latitude
0.00008°
Longitude
123.34122°
Altitude
151.221 km
Speed
7.814 km/s
True Right ascension
00h 58m 11s
True Declination
0° 00' 00"
Sunlit
Object was in daylight at epoch
Visualization orbit readout
Latitude
Unknown
Longitude
Unknown
Altitude
Unknown
Speed
Unknown
Apparent Right ascension
Unknown
Apparent Declination
Unknown
Sunlit
N/A
Visualization observer readout
Local Sidereal Time
23:56:10
Azimuth
Unknown
Elevation
Unknown
Doppler factor
Unknown
Orbital elements
Apogee altitude
146.645 km
Perigee altitude
137.36 km
Semi-major axis
6,520.139 km
Eccentricity
0.00071
Inclination
98.0991°
RAAN
14.5477°
Arg. of periapsis
232.8921°
True anomaly
127.23808°
Mean anomaly
127.1731°
Eccentric anomaly
127.20559°
Mean motion
4.12247 °/min
Orbital period
87.33 mins
BSTAR
0.00027264
Loading maneuver chart data...
Computing Atmospheric mass density...
Loading historical data...
Loading historical data...
Loading historical data...
Loading historical data...
Loading historical data...
Loading historical data...
Loading historical data...

Documentation

Showing up to 5 results
|